Tracking 21474 objects as of 26-Sep-2020
HD Live streaming from Space Station
objects crossing your sky now

COSMOS 1249 FUEL CORE

Track COSMOS 1249 FUEL CORE now!
10-day predictions


NORAD ID: 12551
Int'l Code: 1981-021C
Perigee: 902.8 km
Apogee: 965.3 km
Inclination: 65.0 °
Period: 103.6 minutes
Semi major axis: 7305 km
RCS: 0.1622 m2 (medium)
Launch date: March 5, 1981
Source: Commonwealth of Independent States (former USSR) (CIS)
Launch site: TYURATAM MISSILE AND SPACE COMPLEX (TTMTR)

Note: This is SATELLITE DEBRIS
aabbcc
Your satellite tracking list
Your tracking list is empty




NASA's NSSDC Master Catalog

Two Line Element Set (TLE):
1 12551U 81021C   20269.46394790 -.00000073  00000-0  14141-4 0  9993
2 12551  64.9647 293.6647 0042771 190.3599 169.6587 13.90491579 11020
Source of the keplerian elements: AFSPC